DECAYED

OBJECT AM, 61770 (Decayed)

Orbit data source: Space-Track

You're viewing an Uncataloged Satellite

Recently launched and/or uncataloged satellites may have evolving metadata. Metadata may include but not limited to: Owner, Maufacturer, Bus, Motor, and Mission.

OBJECT AM, 61770 was a satellite in LEO that was launched on Mon, 04 Nov 2024 UTC via a SOYUZ-2-1B launch vehicle from the Vostochny Cosmodrome (VOSTO). Unknown objects in Earth's orbit typically refer to objects detected orbiting the Earth but have not yet been identified or cataloged. These objects could be anything from previously untracked satellites, spent rocket stages, debris from satellite collisions, or even natural meteoroids temporarily captured by Earth's gravity. This object's orbit decayed before it could be identified.

Loading next visibility...
Identifier
61770, 2024-199AM
Orbit
Decayed
Country
Flag of TBDTBD
Related business
None
Manufacturer
Unknown
Mission
Decayed Amateur Science
Bus & Motor
Unknown
Mass
Unknown
Launch date (UTC)
2024-11-04 (2 years ago)
Launch vehicle
SOYUZ-2-1B
Launch site
Vostochny Cosmodrome (VOSTO)
Object type
Unknown
Shape & HBR
Box + 2 Pan, 0.1 m
Radar Cross Section
0.080 m², Small (<0.1 m²)

Expand to show TLE details & history
Last TLE update: 1 year ago

TLE from 1 year ago
0 OBJECT AM
1 61770U 24199AM  25074.79806751  .15398350  25541-5  31393-2 0  9994
2 61770  97.3199 307.4840 0006898 222.4437 137.6325 16.31249881 64068
Epoch: 2025-03-15T19:09Z
TLE epoch observation values (Epoch: 2025-03-15T19:09:13.032Z)
Latitude
-0.00008°
Longitude
-153.45873°
Altitude
195.774 km
Speed
7.787 km/s
True Right ascension
20h 29m 56s
True Declination
0° 00' 00"
Sunlit
Object was in daylight at epoch
Visualization orbit readout
Latitude
Unknown
Longitude
Unknown
Altitude
Unknown
Speed
Unknown
Apparent Right ascension
Unknown
Apparent Declination
Unknown
Sunlit
N/A
Visualization observer readout
Local Sidereal Time
14:34:28
Azimuth
Unknown
Elevation
Unknown
Doppler factor
Unknown
Orbital elements
Apogee altitude
190.526 km
Perigee altitude
181.47 km
Semi-major axis
6,564.135 km
Eccentricity
0.00069
Inclination
97.3199°
RAAN
307.484°
Arg. of periapsis
222.4437°
True anomaly
137.68573°
Mean anomaly
137.6325°
Eccentric anomaly
137.65912°
Mean motion
4.0811 °/min
Orbital period
88.21 mins
BSTAR
0.0031393
Loading maneuver chart data...
Computing Atmospheric mass density...
Loading historical data...
Loading historical data...
Loading historical data...
Loading historical data...
Loading historical data...
Loading historical data...
Loading historical data...

Documentation

Showing up to 5 results
|